TimePST,TemperatureF,Dew PointF,Humidity,Sea Level PressureIn,VisibilityMPH,Wind Direction,Wind SpeedMPH,Gust SpeedMPH,PrecipitationIn,Events,Conditions,WindDirDegrees,DateUTC
12:53 AM,43.0,42.1,97,29.96,0.8,Calm,Calm,-,N/A,,Mist,0,2012-11-26 08:53:00
1:35 AM,42.8,39.2,87,29.98,1.2,West,3.5,-,N/A,,Mostly Cloudy,270,2012-11-26 09:35:00
1:50 AM,41.0,39.2,93,29.98,0.2,Calm,Calm,-,N/A,Fog,Fog,0,2012-11-26 09:50:00
1:53 AM,41.0,39.9,96,29.96,0.2,Calm,Calm,-,N/A,Fog,Fog,0,2012-11-26 09:53:00
2:18 AM,42.8,39.2,87,29.98,0.5,Calm,Calm,-,N/A,Fog,Fog,0,2012-11-26 10:18:00
2:46 AM,42.8,41.0,93,29.99,0.2,Calm,Calm,-,N/A,Fog,Fog,0,2012-11-26 10:46:00
2:53 AM,42.1,41.0,96,29.98,0.2,Calm,Calm,-,N/A,Fog,Fog,0,2012-11-26 10:53:00
3:10 AM,39.2,39.2,100,29.99,0.8,Calm,Calm,-,N/A,,Mist,0,2012-11-26 11:10:00
3:41 AM,39.2,39.2,100,29.99,0.2,Calm,Calm,-,N/A,Fog,Fog,0,2012-11-26 11:41:00
3:51 AM,39.2,39.2,100,29.99,0.5,Calm,Calm,-,N/A,Fog,Fog,0,2012-11-26 11:51:00
3:53 AM,39.0,37.9,96,29.97,0.5,Calm,Calm,-,N/A,Fog,Fog,0,2012-11-26 11:53:00
4:53 AM,39.9,37.9,93,29.99,0.8,Calm,Calm,-,N/A,,Mist,0,2012-11-26 12:53:00
5:10 AM,39.2,37.4,93,30.00,0.2,Calm,Calm,-,N/A,Fog,Fog,0,2012-11-26 13:10:00
5:30 AM,39.2,39.2,100,30.00,0.5,Calm,Calm,-,N/A,Fog,Fog,0,2012-11-26 13:30:00
5:42 AM,39.2,37.4,93,30.00,0.2,Calm,Calm,-,N/A,Fog,Fog,0,2012-11-26 13:42:00
5:53 AM,39.0,37.9,96,29.99,0.2,Calm,Calm,-,N/A,Fog,Fog,0,2012-11-26 13:53:00
6:24 AM,39.2,39.2,100,30.01,1.0,Calm,Calm,-,N/A,,Overcast,0,2012-11-26 14:24:00
6:39 AM,39.2,39.2,100,30.01,0.8,Calm,Calm,-,N/A,,Mist,0,2012-11-26 14:39:00
6:53 AM,39.0,37.9,96,30.00,0.5,Calm,Calm,-,N/A,Fog,Fog,0,2012-11-26 14:53:00
7:53 AM,39.9,39.0,97,30.02,0.2,Calm,Calm,-,N/A,Fog,Fog,0,2012-11-26 15:53:00
8:53 AM,43.0,42.1,97,30.04,0.2,Calm,Calm,-,0.01,Fog,Fog,0,2012-11-26 16:53:00
9:53 AM,45.0,45.0,100,30.05,1.0,Calm,Calm,-,N/A,,Mostly Cloudy,0,2012-11-26 17:53:00
10:53 AM,48.9,48.0,97,30.04,10.0,Calm,Calm,-,N/A,,Partly Cloudy,0,2012-11-26 18:53:00
11:53 AM,57.9,50.0,75,30.02,10.0,Calm,Calm,-,N/A,,Clear,0,2012-11-26 19:53:00
12:53 PM,60.1,48.9,67,30.00,10.0,WSW,3.5,-,N/A,,Clear,250,2012-11-26 20:53:00
1:53 PM,63.0,50.0,63,29.99,10.0,Calm,Calm,-,N/A,,Partly Cloudy,0,2012-11-26 21:53:00
2:53 PM,64.0,50.0,60,29.98,10.0,South,4.6,-,N/A,,Partly Cloudy,190,2012-11-26 22:53:00
3:53 PM,64.0,50.0,60,29.98,10.0,South,4.6,-,N/A,,Clear,170,2012-11-26 23:53:00
4:53 PM,59.0,51.1,75,29.98,10.0,Calm,Calm,-,N/A,,Clear,0,2012-11-27 00:53:00
5:53 PM,53.1,48.9,86,30.00,8.0,South,5.8,-,N/A,,Mostly Cloudy,180,2012-11-27 01:53:00
6:53 PM,50.0,48.0,93,30.01,5.0,South,6.9,-,N/A,,Mostly Cloudy,180,2012-11-27 02:53:00
7:19 PM,50.0,48.2,94,30.03,3.0,South,5.8,-,N/A,,Mostly Cloudy,170,2012-11-27 03:19:00
7:26 PM,50.0,48.2,94,30.04,4.0,South,5.8,-,N/A,,Scattered Clouds,170,2012-11-27 03:26:00
7:53 PM,50.0,48.0,93,30.03,4.0,SE,5.8,-,N/A,,Clear,130,2012-11-27 03:53:00
8:27 PM,51.8,48.2,88,30.06,5.0,SSE,4.6,-,N/A,,Scattered Clouds,160,2012-11-27 04:27:00
8:36 PM,51.8,50.0,94,30.06,5.0,SE,3.5,-,N/A,,Mostly Cloudy,130,2012-11-27 04:36:00
8:53 PM,52.0,50.0,93,30.04,5.0,Calm,Calm,-,N/A,,Overcast,0,2012-11-27 04:53:00
9:53 PM,52.0,50.0,93,30.05,3.0,Calm,Calm,-,N/A,,Overcast,0,2012-11-27 05:53:00
10:09 PM,51.8,50.0,94,30.07,3.0,Calm,Calm,-,N/A,,Overcast,0,2012-11-27 06:09:00
10:17 PM,51.8,50.0,94,30.07,3.0,Calm,Calm,-,N/A,,Overcast,0,2012-11-27 06:17:00
10:53 PM,51.1,50.0,96,30.05,2.5,NNW,3.5,-,N/A,,Overcast,340,2012-11-27 06:53:00
11:21 PM,51.8,50.0,94,30.06,3.0,NE,3.5,-,N/A,,Overcast,50,2012-11-27 07:21:00
11:53 PM,52.0,50.0,93,30.05,4.0,Calm,Calm,-,N/A,,Overcast,0,2012-11-27 07:53:00